Regional Weather Roundup
Issued by NWS

Home | Current Version | Previous Version | Graphics & Text | Print | Product List | Glossary On
Versions: 1 2 3 4 5 6 7 8 9 10 11 12 13 14 15 16 17 18 19 20 21 22 23 24 25 26 27 28 29 30 31 32 33 34 35 36 37 38 39 40 41 42 43 44 45 46 47 48 49 50
906
ASUS45 KTFX 140110
RWRMT
MONTANA REGIONAL WEATHER ROUNDUP
NATIONAL WEATHER SERVICE GREAT FALLS MT
600 PM MST WED DEC 13 2017

NOTE: "FAIR" INDICATES FEW OR NO CLOUDS BELOW 12000 FEET WITH NO
SIGNIFICANT WEATHER AND/OR OBSTRUCTIONS TO VISIBILITY.

MTZ001>007-043-140200-
WEST OF THE DIVIDE

CITY           SKY/WX    TMP DP  RH WIND       PRES   REMARKS
KALISPELL      FAIR      21  20  96 CALM      30.47S
MISSOULA       CLOUDY    31  25  78 NW9       30.44S WCI  23
BUTTE          CLOUDY    30  24  78 NW8       30.33R WCI  22
MULLAN PASS    MOCLDY    22  20  92 SE7       30.33S FOG     WCI  13
ANACONDA         N/A     28  27  93 CALM      30.36R
DEER LODGE       N/A     28  28 100 N7        30.37R WCI  21
EUREKA           N/A     23  18  80 MISG      30.51S
HAMILTON         N/A     28  27  93 N3        30.45R
LIBBY            N/A     25  21  86 CALM      30.48R
RONAN            N/A     28  24  85 CALM      30.46
$$

MTZ008-052>055-140200-
SOUTHWEST MONTANA

CITY           SKY/WX    TMP DP  RH WIND       PRES   REMARKS
BOZEMAN        CLOUDY    29  27  92 CALM      30.33R FOG
DILLON         CLOUDY    32  29  88 SW5       30.30R
W YELLOWSTONE  CLOUDY    21  21 100 CALM      30.22R
ENNIS          CLOUDY    28  28 100 N10       30.32R WCI  19
THREE FORKS      N/A     23  21  92 CALM      30.29R
$$

MTZ009-010-012-014-046-048-049-054-140200-
EAST SLOPES AND CENTRAL MONTANA

CITY           SKY/WX    TMP DP  RH WIND       PRES   REMARKS
CUT BANK       CLOUDY    35  20  54 W10       30.30R WCI  27
GREAT FALLS    FAIR      27  24  89 SW10      30.31R WCI  17
MALMSTROM AFB  FAIR      32  29  87 W8        30.32R WCI  25
HELENA         FAIR      26  25  96 SW5       30.33S
BOWMANS CRNR   FAIR      28  28  99 SW7       30.31R WCI  21
CHOTEAU          N/A     34  19  55 W8        30.32R WCI  27
FAIRFIELD      FAIR      31  19  60 W3        30.31R
POWER          MOCLDY    31  20  64 NW10      30.29R WCI  22
RAYNESFORD     FAIR      35  26  67 SW14      30.29R WCI  26
ULM            FAIR      26  23  87 SW5       30.32R
$$

MTZ011-013-016-021-045-047-050-051-140200-
NORTH CENTRAL MONTANA

CITY           SKY/WX    TMP DP  RH WIND       PRES   REMARKS
HAVRE          FAIR      35  24  64 SW16      30.23R WCI  25
LEWISTOWN      CLOUDY    31  26  82 SW7       30.25R WCI  24
N BAR RANCH    MOCLDY    34  21  60 NW15G23   30.24R WCI  24
CHINOOK          N/A     37  25  60 NW10G16   30.20R WCI  30
DENTON         FAIR      29  23  78 MISG      30.22R
GEYSER         FAIR      33  26  77 W17       30.26R WCI  21
GRASS RANGE    FAIR      35  23  62 W17       30.20R WCI  24
STANFORD       FAIR      32  24  72 NW17      30.25R WCI  21
WINIFRED       FAIR      33  24  68 W7        30.24R WCI  27
$$

MTZ017>020-022>027-061-062-140200-
NORTHEAST MONTANA

CITY           SKY/WX    TMP DP  RH WIND       PRES   REMARKS
GLASGOW        FAIR      33  25  72 W10       30.11S WCI  25
GLENDIVE       CLOUDY    37  26  64 NW17      30.08S WCI  27
JORDAN           N/A     33  23  66 W7        30.15R WCI  27
SIDNEY         CLOUDY    37  27  67 W14       30.05S WCI  28
WOLF POINT     CLOUDY    39  27  62 W9        30.09S
MALTA          CLEAR     32  25  74 W10       30.16S WCI  24
PLENTYWOOD       N/A     28  27  93 CALM      30.03R
POPLAR           N/A     37  27  65 W7        30.08S
$$

MTZ028>42-056>058-140200-
SOUTHCENTRAL AND SOUTHEAST MONTANA

CITY           SKY/WX    TMP DP  RH WIND       PRES   REMARKS
BAKER          FAIR      32  27  81 W12       30.07S WCI  23
BILLINGS       CLOUDY    38  26  62 NW9       30.22R WCI  31
LIVINGSTON     FLURRIES  32  32 100 W5        30.29R
MILES CITY     CLOUDY    37  24  59 NW6       30.13R
BIG TIMBER     CLOUDY    32  32 100 W16       30.29R WCI  21
FORSYTH          N/A     39  21  48 W8        30.16R
LAUREL           N/A     37  30  75 VRB5      30.24R
$$

REGIONAL REPORTS...DAKOTAS

CITY           SKY/WX    TMP DP  RH WIND       PRES   REMARKS
WILLISTON      FAIR      33  25  72 W9        30.02S WCI  25
MINOT          CLOUDY    33  25  72 NW14      29.97R WCI  23
DICKINSON      FAIR      31  23  72 NW13      29.99S WCI  21
BEACH          MOCLDY    34  27  75 NW12      30.08S WCI  25
CROSBY         FAIR      28  28 100 W9        30.01R WCI  20
TIOGA          FAIR      28  28 100 W10       30.00F WCI  19
WATFORD CITY   FAIR      32  27  80 W9        30.01F WCI  24
BISMARCK       MOCLDY    34  25  69 NW14      30.00R WCI  25
GRAND FORKS    FLURRIES  20  16  84 N15       29.98R WCI   6
FARGO          CLOUDY    22  17  81 N14       29.95R WCI   9
BUFFALO SD       N/A     35  25  66 W13       29.99R WCI  26
RAPID CITY     FAIR      39  23  52 N20       30.05R WCI  29
$$

REGIONAL REPORTS...WYOMING/IDAHO/WASHINGTON

CITY           SKY/WX    TMP DP  RH WIND       PRES   REMARKS
GILLETTE       CLOUDY    35  19  52 NW16      30.11S WCI  25
SHERIDAN       MOCLDY    36  22  56 NW7       30.17R WCI  30
BUFFALO WY     CLOUDY    39  22  50 NW20G26   30.14R WCI  29
CODY           MIX PCPN  30  28  93 CALM      30.22R FOG
YELLOWSTONE LA   N/A     21  19  92 CALM      30.20R
IDAHO FALLS    MOCLDY    25  23  92 S7        30.28R WCI  17
SALMON         CLOUDY    24  21  88 CALM      30.41R
BOISE          CLOUDY    25  21  85 NW12      30.39S WCI  14
SPOKANE        CLOUDY    29  25  85 CALM      30.50R
$$

REGIONAL REPORTS...ALBERTA

CITY           SKY/WX    TMP DP  RH WIND       PRES   REMARKS
EDMONTON       CLEAR     36  27  69 W9        30.27R WCI  29
CALGARY        PTCLDY    37  25  60 W3        30.31R
LETHBRIDGE     PTCLDY    41  25  52 NW15G22   30.31F
MEDICINE HAT   CLEAR     37  27  65 W15G22    30.25R WCI  28
$$

REGIONAL REPORTS...SASKATCHEWAN

CITY           SKY/WX    TMP DP  RH WIND       PRES   REMARKS
SWIFT CURRENT  MOCLDY    32  27  80 W18G25    30.06S WCI  20
REGINA         MOCLDY    32  28  86 W9        29.97F WCI  24
SASKATOON      MOCLDY    34  28  80 NW17      30.02R WCI  23
$$




USA.gov is the U.S. government's official web portal to all federal, state and local government web resources and services.